ISS (ZARYA) 1 25544U 98067A 26094.84355279 .00009370 00000+0 17936-3 0 9991 2 25544 51.6331 303.0545 0006326 272.5089 87.5175 15.48773610560388 POISK 1 36086U 09060A 26094.84355279 .00009370 00000+0 17936-3 0 9999 2 36086 51.6331 303.0545 0006326 272.5089 87.5175 15.48773610559581 CSS (TIANHE) 1 48274U 21035A 26094.30151222 .00040275 00000+0 44965-3 0 9991 2 48274 41.4679 52.1686 0003749 122.2718 237.8485 15.62002278281610 ISS (NAUKA) 1 49044U 21066A 26094.84355279 .00009370 00000+0 17936-3 0 9997 2 49044 51.6331 303.0545 0006326 272.5089 87.5175 15.48773610559624 FREGAT DEB 1 49271U 11037PF 26094.30413852 .00015789 00000+0 22751-1 0 9999 2 49271 51.6425 223.8351 0955986 118.1292 251.9488 12.40917042215878 CSS (WENTIAN) 1 53239U 22085A 26094.30151222 .00040275 00000+0 44965-3 0 9994 2 53239 41.4679 52.1686 0003749 122.2718 237.8485 15.62002278281875 CSS (MENGTIAN) 1 54216U 22143A 26094.30151222 .00040275 00000+0 44965-3 0 9995 2 54216 41.4679 52.1686 0003749 122.2718 237.8485 15.62002278281871 TIANZHOU-9 1 64786U 25149A 26094.30151222 .00040275 00000+0 44965-3 0 9997 2 64786 41.4679 52.1686 0003749 122.2718 237.8485 15.62002278281874 PROGRESS-MS 32 1 65586U 25204A 26094.84355279 .00009370 00000+0 17936-3 0 9994 2 65586 51.6331 303.0545 0006326 272.5089 87.5175 15.48773610554505 YOTSUBA-KULOVER 1 65941U 98067XN 26094.75875491 .00660462 20478-3 13136-2 0 9996 2 65941 51.6137 280.5790 0008036 269.0076 91.0013 15.99239064 27649 BOTAN 1 65943U 98067XQ 26094.90038789 .00559505 14423-3 12101-2 0 9995 2 65943 51.6176 280.0541 0008104 265.6352 94.3731 15.97750904 27662 HRC MONOBLOCK CAMERA 1 66052U 98067XR 26094.77622727 .00071577 00000+0 70761-3 0 9990 2 66052 51.6269 293.5980 0003886 223.4722 136.5967 15.65207288 26473 HTV-X1 1 66174U 25241A 26094.93054386 .00007406 00000+0 24350-3 0 9990 2 66174 51.6361 306.5734 0007342 273.9115 86.1027 15.32540241 24962 SZ-21 MODULE 1 66515U 25246C 26094.27025469 .00061134 00000+0 47837-3 0 9994 2 66515 41.4750 45.6530 0003225 227.1909 132.8663 15.70682632 22093 SHENZHOU-22 1 66645U 25272A 26094.30151222 .00040275 00000+0 44965-3 0 9990 2 66645 41.4679 52.1686 0003749 122.2718 237.8485 15.62002278281870 SOYUZ-MS 28 1 66664U 25275A 26094.84355279 .00009370 00000+0 17936-3 0 9990 2 66664 51.6331 303.0545 0006326 272.5089 87.5175 15.48773610559867 DUPLEX 1 66906U 98067XS 26094.57928401 .00036815 00000+0 48606-3 0 9993 2 66906 51.6284 299.7899 0003390 234.7456 125.3219 15.58002490 19168 ISS OBJECT XT 1 66907U 98067XT 26094.54951221 .00316879 00000+0 15900-2 0 9998 2 66907 51.6224 292.7926 0007185 249.6883 110.3346 15.80264331 19256 ISS OBJECT XU 1 66908U 98067XU 26094.54446233 .00330086 00000+0 16263-2 0 9990 2 66908 51.6221 292.7537 0007323 249.1942 110.8275 15.80626802 19258 SILVERSAT 1 66909U 98067XV 26094.78704661 .00565248 00000+0 18876-2 0 9991 2 66909 51.6184 289.8512 0009050 258.4718 101.5271 15.88187528 19315 ISS OBJECT XW 1 66910U 98067XW 26094.81721722 .00228077 00000+0 12620-2 0 9991 2 66910 51.6195 291.5715 0007449 246.0581 113.9639 15.78347512 19297 ISS OBJECT XX 1 66911U 98067XX 26094.56725693 .01030350 52428-3 20785-2 0 9997 2 66911 51.6142 289.0850 0011132 263.7440 96.2301 15.98982118 19294 ISS OBJECT XY 1 66912U 98067XY 26094.80304285 .00143123 00000+0 11708-2 0 9997 2 66912 51.6250 294.5167 0005118 244.3771 115.6697 15.69558582 19247 KNACKSAT-2 1 67683U 98067XZ 26094.79014270 .00049990 00000+0 75544-3 0 9999 2 67683 51.6331 301.9471 0010720 281.6024 78.3763 15.54148205 8848 CORAL 1 67684U 98067YA 26094.83018255 .00093721 00000+0 11615-2 0 9991 2 67684 51.6290 300.7162 0013624 272.7085 87.2349 15.59172561 8869 GXIBA-1 1 67685U 98067YB 26094.77752869 .00056407 00000+0 83058-3 0 9992 2 67685 51.6301 301.8662 0012502 279.3255 80.6322 15.54782829 8841 UITMSAT-2 1 67686U 98067YC 26094.82248670 .00057681 00000+0 81491-3 0 9993 2 67686 51.6303 301.4182 0009548 253.7696 106.2245 15.55936506 8852 HMU-SAT2 1 67687U 98067YD 26094.78362938 .00054021 00000+0 80536-3 0 9997 2 67687 51.6310 301.9093 0009085 256.2021 103.7959 15.54504888 8760 LEOPARD 1 67688U 98067YE 26094.83129328 .00053651 00000+0 77371-3 0 9999 2 67688 51.6311 301.4769 0009245 254.0354 105.9619 15.55413317 8775 CREW DRAGON 12 1 67796U 26031A 26094.84355280 .00009374 00000+0 17944-3 0 9993 2 67796 51.6332 303.0546 0006328 272.4856 87.5408 15.48773624560359 PROGRESS-MS 33 1 68319U 26058A 26094.84355279 .00009370 00000+0 17936-3 0 9999 2 68319 51.6331 303.0545 0006326 272.5089 87.5175 15.48773610 1251